Location: Grange Verzio
(44.5000°N, 6.9833°E)
Time: 11:07:24
(UTC+00:00)

Cosmos 2322 Rocket - Pass Details

Date: 01 February 2023
Orbit: 831 x 852 km, 71.0° (Epoch: 30 March)

Event Time Altitude Azimuth Distance (km) Brightness Sun altitude
Rises 18:44:41 0° 215° (SW) 3,363 5.9 -22.3°
Reaches altitude 10° 18:47:09 10° 219° (SW) 2,432 5.1 -22.7°
Maximum altitude 18:52:39 59° 299° (WNW) 955 2.6 -23.7°
Enters shadow 18:56:57 17° 16° (NNE) 2,000 4.0 -24.4°
